Showing default

JILIN-01 GAOFEN 3D 33, 52450

Orbit data source: Space-Track

JILIN-01 GAOFEN 3D 33, 52450 is a payload satellite owned by Changguang WJ (CN) in SSO that was launched on Thu, 05 May 2022 UTC via a CHANG ZHENG 2D launch vehicle from the Taiyaun Space Center, China (TSC). Payload-class satellites include a variety of spacecraft equipped with specific instruments for various scientific and technological missions. These include communications satellites like Starlink; space stations such as the ISS; scientific satellites like the Hubble; Earth observation satellites from companies like Planet Labs, Umbra, and HawkEye 360; GPS; miniature CubeSats for education and research; and military/defense satellites.

Loading next visibility...
Identifier
52450, 2022-048H
Orbit
SSO
Last TLE update
6 hours ago
Origin
Manufacturer
Changguang WJ
Mission
Operational Commercial Imaging
Bus & Motor
JL-1, Unknown motor
Mass
42 kg wet, 42 kg dry
Launch date (UTC)
2022-05-05 (3 years ago)
Launch vehicle
CHANG ZHENG 2D
Launch site
Taiyaun Space Center, China (TSC)
Object type
Payload
Rocket body
Debris
Shape & HBR
Box + 2 Pan, 1.5 m
Radar Cross Section
2.000 m², Medium (>0.1 m² and < 1m²)

Expand to show TLE details & history

TLE from 6 hours ago
0 JILIN-01 GAOFEN 3D 33
1 52450U 22048H   25186.19226145  .00053732  00000-0  75788-3 0  9992
2 52450  97.5760 284.7374 0006822 181.9224 178.2005 15.56410547176175
Epoch: 2025-07-05T04:36Z
TLE epoch observation values (Epoch: 2025-07-05T04:36:51.389Z)
Latitude
-0.00004°
Longitude
-67.91055°
Altitude
405.811 km
Speed
7.665 km/s
True Right ascension
18h 58m 56s
True Declination
0° 00' 00"
Sunlit
Object was in full shadow at epoch
Visualization orbit readout
Latitude
-63.86758°
Longitude
-52.00984°
Altitude
424.319 km
Speed
7.654 km/s
Apparent Right ascension
12h 46m 25s
Apparent Declination
-73° 28' 42"
Sunlit
Object is in full shadow
Visualization observer readout
Local Sidereal Time
22:24:43
Azimuth
195.695° SSW
Elevation
-52.458°
Doppler factor
1
Orbital elements
Apogee altitude
399.601 km
Perigee altitude
390.36 km
Semi-major axis
6,773.117 km
Eccentricity
0.00068
Inclination
97.576°
RAAN
284.7374°
Arg. of periapsis
181.9224°
True anomaly
Unknown
Mean anomaly
178.2005°
Eccentric anomaly
Unknown
Mean motion
3.89368 °/min
Orbital period
92.46 mins
BSTAR
0.00075788
Loading maneuver chart data...
Loading SW <> Apogee altitude chart data...
Loading historical data...
Loading historical data...
Loading historical data...
Loading historical data...
Loading historical data...
Loading historical data...
Loading historical data...

JILIN-01 GAOFEN 3D 33 Visibility forecast

Observer location: undefined°, undefined°

Span
Click to sort rows by Start time (UTC) header in descending order
Start Az.
Max El. time (UTC)
Max El. Az.
Max El.
End time (UTC)
End Az.
5 mins2025-07-05 19:03:29.273Z32.208° NE2025-07-05 19:06:29.273Z112.056° ESE28.278°2025-07-05 19:08:29.273Z161.175° S
4 mins2025-07-06 06:59:29.273Z206.295° SW2025-07-06 07:00:29.273Z240.682° WSW31.872°2025-07-06 07:03:29.273Z330.762° NNW
|